Date,TemperatureHighF,TemperatureAvgF,TemperatureLowF,DewpointHighF,DewpointAvgF,DewpointLowF,HumidityHigh,HumidityAvg,HumidityLow,PressureMaxIn,PressureMinIn,WindSpeedMaxMPH,WindSpeedAvgMPH,GustSpeedMaxMPH,PrecipitationSumIn
2013-1-1,75.2,67.9,61.9,67.6,62.9,58.1,91,84,77,30.20,30.03,8,1,9,0.00
2013-1-2,81.0,70.1,62.4,68.7,64.9,60.1,94,84,60,30.06,29.96,7,1,11,0.00
2013-1-3,76.8,68.0,61.0,71.1,65.5,59.8,97,92,81,30.12,30.01,11,2,11,0.00
2013-1-4,69.9,67.5,64.5,67.7,65.9,63.0,96,95,92,30.22,30.09,13,4,14,0.00
2013-1-5,74.1,69.0,64.1,70.9,66.7,62.3,97,93,86,30.24,30.15,13,3,14,0.06
2013-1-6,74.5,70.5,66.7,72.6,69.2,65.9,98,96,93,30.18,30.04,14,1,14,0.33
2013-1-7,73.1,69.6,66.5,69.6,67.5,65.1,98,93,88,30.17,30.07,16,5,16,0.26
2013-1-8,75.7,71.2,68.6,72.1,69.3,67.0,97,94,87,30.20,30.08,9,2,10,0.01
2013-1-9,76.9,72.9,69.4,73.4,71.0,68.1,97,94,88,30.28,30.17,13,3,15,0.04
2013-1-10,76.9,72.7,70.6,72.7,69.6,68.2,95,91,83,30.29,30.19,10,3,10,0.00
2013-1-11,76.6,72.8,71.1,71.2,69.7,68.6,94,90,82,30.26,30.15,10,3,11,0.00
2013-1-12,78.0,73.5,71.2,71.7,69.5,66.8,94,88,81,30.18,30.09,8,2,10,0.00
2013-1-13,78.3,73.9,72.2,69.8,67.8,65.7,86,82,73,30.13,30.06,14,5,17,0.00
2013-1-14,78.0,74.2,71.7,70.3,68.2,65.5,85,82,77,30.17,30.11,11,4,12,0.00
2013-1-15,78.7,74.6,72.8,71.3,68.5,66.3,86,82,77,30.13,30.04,12,4,13,0.00
2013-1-16,80.6,72.4,64.1,70.8,67.9,62.6,97,86,70,30.09,29.99,10,2,11,0.00
2013-1-17,82.3,70.3,56.9,72.7,64.8,50.4,96,83,63,30.06,29.90,15,2,18,0.00
2013-1-18,69.0,59.8,45.5,63.9,53.7,40.3,92,81,70,30.22,30.06,26,6,26,0.07
2013-1-19,72.9,68.8,65.2,67.2,65.4,62.2,96,90,80,30.22,30.09,19,6,21,0.39
2013-1-20,73.2,68.9,64.3,69.4,66.6,63.4,97,93,86,30.13,30.02,12,3,14,0.01
2013-1-21,77.5,69.9,63.4,70.8,66.9,62.2,96,90,78,30.06,29.95,12,2,15,0.39
2013-1-22,68.7,65.6,63.0,62.2,57.5,52.8,96,76,67,30.23,29.99,21,7,21,0.01
2013-1-23,67.9,61.6,54.7,59.1,53.6,48.0,86,75,67,30.30,30.21,14,4,15,0.00
2013-1-24,68.3,60.7,51.4,56.4,51.7,44.8,89,73,54,30.30,30.21,10,2,10,0.00
2013-1-25,72.3,63.0,54.4,61.0,56.1,50.8,90,79,49,30.28,30.17,10,2,10,0.00
2013-1-26,70.0,63.1,53.1,61.7,56.7,47.7,92,80,66,30.25,30.14,9,2,12,0.00
2013-1-27,72.3,66.2,55.2,67.0,62.4,53.1,95,88,82,30.29,30.19,12,3,15,0.00
2013-1-28,74.9,70.7,68.6,70.9,67.4,65.1,94,90,84,30.32,30.22,13,4,14,0.16
2013-1-29,75.7,71.0,69.1,71.4,68.8,67.6,97,93,85,30.23,30.10,11,2,13,0.18
2013-1-30,76.5,72.7,67.2,71.0,67.6,64.3,93,84,77,30.10,29.92,15,3,16,0.00
2013-1-31,69.8,62.0,53.1,67.6,53.6,37.3,96,76,49,30.17,29.90,16,3,17,0.07
2013-2-1,64.7,56.8,47.6,54.5,44.1,36.5,71,63,43,30.29,30.17,15,4,19,0.00
2013-2-2,70.3,60.6,50.0,58.8,51.2,39.1,83,72,62,30.26,30.11,9,2,11,0.00
2013-2-3,66.7,59.1,52.5,53.9,50.3,41.8,87,74,46,30.17,30.05,14,2,14,0.00
2013-2-4,68.4,58.0,46.7,55.1,45.5,30.7,84,65,35,30.11,30.01,11,1,11,0.00
2013-2-5,75.5,64.2,50.9,62.3,53.3,40.0,85,68,48,30.08,29.99,9,2,10,0.00
2013-2-6,76.0,68.8,60.1,68.9,64.1,58.0,95,85,77,30.10,30.00,10,2,11,0.00
2013-2-7,77.6,72.8,69.8,69.7,66.6,63.8,87,81,74,30.07,29.90,11,4,13,0.00
2013-2-8,75.5,69.8,65.0,67.2,64.8,62.1,93,85,71,30.04,29.86,11,2,11,0.00
2013-2-9,72.7,68.9,61.4,65.4,63.2,59.4,95,83,72,30.17,30.02,14,5,16,0.00
2013-2-10,74.0,70.7,68.9,64.5,62.6,60.6,80,76,69,30.26,30.15,14,6,16,0.00
2013-2-11,77.8,72.6,67.4,67.5,65.5,62.3,85,79,68,30.21,30.07,16,4,17,0.00
2013-2-12,83.8,72.7,65.3,71.5,67.6,63.0,94,85,56,30.10,29.93,12,2,13,0.00
2013-2-13,86.0,75.8,68.3,73.9,68.5,61.1,97,80,56,29.97,29.82,16,3,18,0.00
2013-2-14,71.5,66.9,61.2,68.9,63.2,59.7,96,88,77,30.02,29.90,15,3,17,1.01
2013-2-15,66.8,62.7,60.3,63.7,60.8,58.8,97,94,85,30.03,29.92,13,2,13,0.06
2013-2-16,68.7,61.1,50.4,60.8,52.8,39.0,97,77,43,30.05,29.86,15,2,18,0.01
2013-2-17,52.5,48.0,41.0,39.8,29.1,20.6,67,48,31,30.31,30.05,17,5,23,0.00
2013-2-18,64.3,50.5,43.4,51.8,37.2,27.1,77,61,51,30.33,30.27,11,3,11,0.00
2013-2-21,75.9,70.6,62.0,72.0,67.9,60.8,97,91,84,30.09,29.99,10,2,10,0.01
2013-2-22,78.3,73.2,68.8,73.4,70.5,66.8,96,91,84,30.09,29.99,11,3,13,0.00
2013-2-23,87.1,75.1,69.3,73.2,70.4,66.3,96,87,52,30.02,29.87,13,2,15,0.16
2013-2-24,84.0,72.7,67.5,72.8,70.0,66.6,98,92,68,29.97,29.88,9,2,10,0.00
2013-2-25,83.5,75.0,71.9,74.2,72.0,70.0,97,91,71,29.89,29.78,13,2,14,0.01
2013-2-26,84.2,77.3,71.1,74.3,70.7,67.5,95,81,63,29.85,29.74,21,3,24,0.00
2013-2-27,74.0,67.5,62.4,67.5,63.1,60.6,95,86,70,29.94,29.84,11,2,11,0.01
2013-2-28,68.9,61.8,54.7,60.5,52.8,47.4,92,74,51,29.98,29.86,11,2,13,0.00
2013-3-1,65.2,58.7,55.3,53.5,47.2,39.1,79,67,46,29.96,29.88,11,1,14,0.00
2013-3-2,57.7,53.1,45.8,44.0,39.3,35.6,76,60,47,30.02,29.93,15,3,22,0.00
2013-3-3,58.8,48.5,40.5,41.0,36.4,31.8,82,64,46,30.14,29.95,20,3,20,0.00
2013-3-4,59.4,51.1,38.9,50.9,38.8,29.1,80,64,42,30.22,30.11,13,4,15,0.00
2013-3-5,71.5,61.3,48.2,62.2,53.9,43.3,92,77,58,30.17,30.03,11,2,12,0.00
2013-3-6,70.7,61.5,50.0,62.7,46.8,26.5,95,65,23,30.09,29.93,18,3,20,0.02
2013-3-7,62.9,55.1,44.1,54.2,45.4,34.3,84,70,59,30.18,30.05,12,4,14,0.00
2013-3-8,66.3,59.2,48.1,57.2,52.2,46.1,94,78,60,30.21,30.11,13,4,15,0.00
2013-3-9,69.2,65.3,53.0,59.0,56.1,47.8,88,72,66,30.20,30.09,14,5,14,0.00
2013-3-10,70.9,68.1,65.6,62.5,60.5,57.0,82,77,72,30.16,30.08,9,4,11,0.00
2013-3-11,74.0,69.6,66.6,65.3,63.0,60.6,84,80,73,30.11,29.93,11,4,14,0.00
2013-3-12,75.8,70.8,64.3,70.3,65.7,61.2,91,84,76,29.98,29.87,11,2,15,0.01
2013-3-13,66.9,61.7,53.1,61.2,55.1,50.5,94,80,63,30.11,29.96,17,4,17,0.01
2013-3-14,61.7,56.8,49.6,52.3,47.9,40.8,82,72,57,30.21,30.09,17,5,18,0.00
2013-3-15,66.1,58.6,47.6,53.5,48.7,42.0,81,70,59,30.25,30.15,12,3,14,0.00
2013-3-16,72.3,62.0,49.4,59.9,53.8,47.3,94,76,50,30.19,30.06,13,2,14,0.01
2013-3-17,72.2,64.7,54.1,63.3,57.8,49.9,88,79,70,30.15,30.01,12,2,13,0.00
2013-3-18,76.3,70.5,65.8,69.5,65.7,61.3,94,85,75,30.06,29.89,10,2,11,0.04
2013-3-19,76.8,70.1,65.6,70.1,66.8,63.8,96,90,75,29.99,29.86,7,1,9,0.01
2013-3-20,76.7,71.2,65.9,71.4,66.4,60.3,96,86,62,29.95,29.76,13,2,18,0.02
2013-3-21,66.3,62.0,55.2,61.3,51.3,41.6,91,70,44,29.93,29.81,12,3,13,0.00
2013-3-22,74.0,64.3,49.4,66.8,56.0,44.3,90,75,56,30.01,29.88,16,3,16,0.04
2013-3-23,87.3,75.8,68.4,75.8,69.6,66.2,97,83,53,29.96,29.74,16,2,17,0.29
2013-3-24,88.5,75.8,68.6,73.9,69.2,64.9,95,81,52,29.86,29.61,26,4,28,0.50
2013-3-25,76.4,69.5,57.4,71.1,53.7,35.3,96,64,25,29.98,29.70,13,3,16,0.00
2013-3-26,64.1,55.7,47.8,42.7,34.5,27.6,65,46,27,30.19,29.97,19,4,19,0.00
2013-3-27,60.7,53.5,44.9,46.7,40.6,32.3,73,62,51,30.26,30.16,14,4,14,0.00
2013-3-28,65.3,57.6,45.7,50.9,46.1,41.3,86,67,46,30.27,30.18,13,4,14,0.00
2013-3-29,70.8,66.5,63.2,55.6,51.1,45.8,69,58,49,30.30,30.20,13,5,16,0.00
2013-3-30,73.3,66.3,54.9,60.6,55.5,51.7,89,69,54,30.25,30.14,15,3,15,0.00
2013-3-31,78.0,68.9,59.8,67.8,61.8,53.9,87,79,59,30.17,30.00,14,3,15,0.00
2013-4-1,86.2,74.1,65.0,71.2,64.9,61.5,96,76,46,30.03,29.89,13,2,16,0.00
2013-4-2,75.5,70.6,64.2,69.1,65.9,62.6,95,86,71,30.06,29.96,9,2,10,0.00
2013-4-3,79.4,74.4,71.4,72.9,70.2,67.4,93,87,77,30.06,29.96,10,4,12,0.00
2013-4-4,76.9,72.3,67.0,73.0,69.6,65.1,94,91,86,30.03,29.89,15,2,18,0.15
2013-4-5,75.7,69.3,64.7,70.4,65.7,61.0,95,89,80,29.92,29.75,15,3,17,0.12
2013-4-6,73.7,67.0,56.6,67.8,61.9,54.2,93,84,73,30.09,29.91,17,4,20,0.00
2013-4-7,74.8,72.0,70.2,67.4,64.9,62.2,82,78,73,30.14,30.02,0,0,0,0.00
2013-4-8,76.7,72.2,64.2,69.0,66.6,60.8,91,83,76,30.13,30.04,0,0,0,0.00
2013-4-9,76.4,73.6,71.9,70.3,68.5,66.3,89,84,78,30.16,30.05,0,0,0,0.00
2013-4-10,80.8,75.2,71.8,73.8,71.3,67.6,94,88,78,30.10,29.99,0,0,0,0.00
2013-4-11,78.3,75.7,73.6,73.7,72.6,71.2,95,90,84,30.01,29.86,0,0,0,0.00
2013-4-12,89.1,78.9,75.1,77.3,74.0,71.3,94,86,59,29.91,29.81,0,0,0,0.00
2013-4-13,84.7,75.5,72.8,76.4,72.3,70.4,95,90,72,29.96,29.87,0,0,0,0.24
2013-4-14,82.1,76.7,74.0,77.7,74.5,72.7,96,93,85,29.96,29.85,0,0,0,0.09
2013-4-15,82.7,74.2,66.8,77.2,71.4,65.2,97,91,79,30.05,29.91,0,0,0,0.48
2013-4-16,79.7,76.5,73.1,76.5,73.3,70.3,96,90,85,30.12,30.01,0,0,0,0.00
2013-4-17,79.4,76.5,74.1,71.4,70.0,68.5,86,81,75,30.12,30.03,0,0,0,0.00
2013-4-18,83.1,78.6,74.0,76.2,73.3,68.8,91,84,76,30.05,29.97,0,0,0,0.00
2013-4-19,83.3,78.8,76.0,76.4,74.8,72.8,92,88,78,30.02,29.92,0,0,0,0.02
2013-4-20,82.5,74.0,69.4,77.0,70.9,66.5,95,90,78,30.09,29.95,0,0,0,0.01
2013-4-21,80.4,74.4,68.3,74.7,71.1,66.0,95,90,82,30.10,29.98,0,0,0,0.02
2013-4-22,78.0,72.6,70.6,72.9,69.9,68.0,95,92,82,30.04,29.95,0,0,0,1.31
2013-4-23,77.6,74.8,71.2,70.3,67.9,63.9,92,80,71,30.09,29.95,0,0,0,0.00
2013-4-24,79.0,75.5,72.9,67.6,65.7,63.7,78,72,66,30.13,30.03,0,0,0,0.00
2013-4-25,80.3,76.3,73.0,68.4,66.8,65.2,79,73,64,30.18,30.07,0,0,0,0.00
2013-4-26,80.0,75.0,66.6,71.9,68.5,62.3,90,81,75,30.22,30.12,0,0,0,0.00
2013-4-27,79.5,75.9,72.2,70.8,68.6,66.7,89,78,73,30.20,30.10,0,0,0,0.04
2013-4-28,81.6,76.6,73.9,70.1,67.5,65.5,80,74,64,30.12,30.00,0,0,0,0.00
2013-4-29,79.5,76.7,74.4,72.2,69.5,66.3,86,79,69,30.03,29.91,0,0,0,0.00
2013-4-30,77.6,74.1,70.6,74.7,71.0,68.7,96,90,84,29.99,29.91,0,0,0,0.06
2013-5-1,80.7,74.9,68.8,74.6,71.5,66.7,97,89,80,30.00,29.91,0,0,0,0.34
2013-5-2,75.7,72.5,67.5,72.7,70.2,65.7,97,93,85,29.94,29.80,0,0,0,2.04
2013-5-3,86.5,75.8,67.9,76.9,71.0,66.9,97,86,68,29.82,29.64,5,0,7,0.04
2013-5-4,88.9,74.7,64.6,75.3,69.9,64.0,100,87,57,29.77,29.66,0,0,2,0.00
2013-5-5,79.1,69.6,66.8,69.1,66.0,54.3,99,90,43,29.87,29.72,1,0,8,0.00
2013-5-7,85.1,77.0,66.3,63.8,59.7,56.9,79,57,44,30.04,29.95,6,0,6,0.00
2013-5-8,88.2,72.8,60.0,72.0,64.6,57.7,96,77,49,30.11,30.01,0,0,1,0.00
2013-5-9,85.8,75.0,63.7,74.7,68.9,60.9,94,82,67,30.14,30.06,0,0,12,0.00
2013-5-10,92.8,79.4,71.4,81.2,74.6,68.7,98,86,67,30.12,30.01,0,0,1,0.00
2013-5-11,93.1,77.6,69.0,79.8,73.3,67.9,99,88,54,30.07,29.93,1,0,16,0.00
2013-5-12,90.5,77.3,69.4,80.8,73.9,69.0,100,91,64,30.02,29.93,0,0,3,0.00
2013-5-13,83.1,73.5,67.2,73.8,68.8,63.2,99,86,67,30.10,29.97,0,0,4,0.00
2013-5-14,83.2,74.4,70.0,66.3,61.7,59.1,76,65,53,30.18,30.08,9,2,14,0.00
2013-5-15,79.8,75.7,73.2,67.5,64.4,60.0,77,68,59,30.20,30.10,8,3,10,0.00
2013-5-16,80.8,75.5,71.6,67.5,65.1,61.4,77,70,60,30.12,30.03,11,4,13,0.00
2013-5-17,81.8,76.8,69.7,72.7,69.8,65.5,88,79,71,30.09,30.00,12,4,15,0.00
2013-5-18,84.1,79.0,72.9,76.5,73.3,69.7,94,83,75,30.10,30.03,13,3,16,0.00
2013-5-19,83.7,78.1,73.7,75.3,72.3,70.2,90,83,73,30.10,30.00,13,3,13,0.00
2013-5-20,78.6,76.2,72.3,74.1,72.4,69.8,95,88,83,30.08,29.98,9,2,14,0.12
2013-5-21,84.0,76.1,70.4,76.0,72.1,68.4,96,88,73,30.03,29.93,17,3,28,0.20
2013-5-22,81.1,76.5,72.4,75.9,73.2,70.6,96,90,80,29.96,29.89,13,2,15,0.01
2013-5-23,84.6,77.6,70.7,77.1,73.8,69.7,98,89,73,29.98,29.89,12,2,12,0.01
2013-5-24,84.7,78.8,70.3,77.7,74.2,68.2,95,86,75,30.06,29.94,8,2,9,0.00
2013-5-25,83.7,79.2,75.5,75.2,70.0,65.0,91,74,57,30.18,30.05,10,4,16,0.00
2013-5-26,80.2,76.6,72.4,70.8,66.9,61.0,78,72,65,30.20,30.12,11,4,14,0.00
2013-5-27,80.9,77.9,74.7,73.2,69.2,64.7,81,75,70,30.17,30.09,11,5,16,0.00
2013-6-3,81.5,77.7,75.0,76.0,74.3,73.1,95,90,79,30.00,29.90,4,0,8,0.02
2013-6-4,83.1,77.6,73.9,77.6,74.5,72.1,97,91,71,30.03,29.93,5,1,8,0.02
2013-6-5,82.7,78.4,76.2,78.9,76.2,74.4,96,93,85,30.00,29.90,7,2,9,0.02
2013-6-6,79.3,75.5,72.2,77.0,74.4,71.5,99,97,93,29.91,29.73,19,4,29,2.01
2013-6-7,89.6,79.3,73.1,78.8,75.0,71.7,98,88,68,29.96,29.79,10,2,16,0.01
2013-6-8,81.2,76.4,73.7,77.7,74.4,72.6,98,94,86,30.09,29.95,9,1,12,0.03
2013-6-9,85.2,78.6,73.2,79.0,75.6,72.2,98,91,79,30.11,30.03,7,1,8,0.00
2013-6-10,86.2,79.9,75.8,80.3,77.1,74.5,97,92,81,30.09,30.01,4,1,7,0.00
2013-6-11,86.1,80.1,76.3,80.9,77.2,74.1,98,91,81,30.07,30.00,6,1,6,0.00
2013-6-12,86.3,80.0,75.8,81.7,77.1,72.4,99,91,80,30.07,30.01,7,1,8,0.00
2013-6-13,90.3,80.4,73.1,79.3,74.6,71.8,96,83,58,30.03,29.90,12,2,12,0.00
2013-6-14,95.2,82.6,74.4,77.4,74.7,73.1,96,79,52,29.94,29.83,8,2,11,0.00
2013-6-15,85.7,80.1,74.9,80.9,76.2,72.9,95,88,77,30.05,29.90,8,2,10,0.00
2013-6-16,85.2,80.9,77.3,79.7,77.6,75.4,95,90,82,30.08,30.02,8,3,8,0.00
2013-6-17,88.0,82.2,77.3,81.3,78.4,75.6,96,89,78,30.07,29.98,10,2,12,0.00
2013-6-18,89.5,82.1,77.9,80.7,77.7,75.9,95,87,72,30.06,29.96,9,2,12,0.00
2013-6-19,86.3,80.3,74.0,79.8,75.2,68.2,91,85,71,30.04,29.96,9,1,13,0.00
2013-6-20,90.7,79.0,74.5,79.9,75.5,71.4,97,90,69,30.09,30.00,5,1,8,0.12
2013-6-21,82.5,76.8,73.9,79.1,74.5,70.2,98,93,77,30.12,30.02,5,0,12,0.05
2013-6-22,84.8,79.9,75.4,79.0,76.4,74.1,97,89,80,30.11,30.04,5,1,9,0.01
2013-6-23,88.0,80.6,75.2,80.2,76.7,72.3,95,88,76,30.14,30.05,10,2,20,0.06
2013-6-24,86.1,81.0,75.5,79.7,76.5,72.8,94,87,78,30.18,30.08,11,2,13,0.02
2013-6-25,87.7,81.4,78.2,81.1,77.4,75.3,93,88,78,30.14,30.04,8,2,8,0.00
2013-6-26,85.9,79.5,76.5,81.1,77.0,74.1,97,92,83,30.07,30.00,9,1,17,0.16
2013-6-27,85.8,80.0,75.3,80.2,76.7,74.2,97,90,79,30.05,29.94,7,1,10,0.00
2013-6-28,91.5,79.5,71.9,79.6,75.0,69.4,97,87,60,29.97,29.83,10,1,14,0.65
2013-6-29,87.8,78.0,71.9,79.6,74.7,69.7,98,90,74,29.91,29.80,7,1,11,0.84
2013-6-30,86.8,76.2,71.9,80.9,74.6,70.3,99,95,78,29.92,29.83,13,1,20,1.63
2013-7-1,85.5,76.1,71.2,79.7,74.3,70.5,100,95,79,30.03,29.89,8,1,14,0.36
2013-7-2,81.5,75.2,71.6,79.2,73.8,70.9,99,96,88,30.10,29.97,9,0,15,0.08
2013-7-3,83.0,76.9,72.5,78.0,74.3,71.7,99,92,82,30.13,30.05,13,1,14,0.01
2013-7-4,82.2,76.8,72.1,77.5,74.3,70.8,98,92,83,30.16,30.08,25,1,25,0.42
2013-7-5,83.5,77.2,72.7,77.9,74.8,71.4,98,93,82,30.14,30.06,7,1,20,0.12
2013-7-6,84.0,78.3,73.6,78.9,75.3,72.6,98,91,82,30.12,30.05,19,2,24,0.05
2013-7-7,82.6,78.2,74.9,79.0,75.9,73.9,98,93,85,30.12,30.04,21,3,27,0.14
2013-7-28,82.3,78.0,73.6,77.2,74.9,71.0,96,91,81,30.06,29.99,0,0,0,0.01
2013-7-29,86.8,80.9,74.4,82.0,77.5,72.5,96,90,82,30.14,30.02,0,0,0,0.08
2013-7-30,85.5,81.8,78.1,81.7,78.9,76.9,97,91,82,30.16,30.09,0,0,0,0.00
2013-7-31,90.0,83.4,79.3,82.6,79.2,76.0,97,88,74,30.11,30.01,0,0,0,0.00
2013-8-1,89.7,82.9,77.6,80.9,77.7,75.2,95,85,71,30.06,29.95,0,0,0,0.00
2013-8-2,86.2,80.9,76.0,80.3,76.8,74.3,95,88,78,30.02,29.92,0,0,0,0.00
2013-8-3,81.5,77.8,75.1,79.5,75.6,73.0,97,93,84,30.11,30.00,0,0,0,0.01
2013-8-4,92.0,79.6,75.2,81.8,77.0,73.8,99,92,68,30.08,29.96,0,0,0,0.04
2013-8-5,89.0,80.0,74.1,82.8,77.3,72.8,97,92,75,30.01,29.91,0,0,0,0.01
2013-8-6,86.3,79.8,73.7,81.4,77.6,73.0,99,93,84,29.96,29.89,0,0,0,0.34
2013-8-7,90.3,83.4,78.9,82.1,79.2,77.2,96,87,74,29.98,29.90,0,0,0,0.00
2013-8-8,89.5,84.4,80.6,81.5,79.1,76.7,91,84,76,30.02,29.93,0,0,0,0.00
2013-8-9,90.7,83.4,78.5,81.8,77.9,74.0,91,84,75,30.06,29.96,0,0,0,0.01
2013-8-10,89.8,83.1,78.7,82.0,79.1,76.1,96,88,77,30.12,30.04,0,0,0,0.00
2013-8-11,88.8,82.8,78.7,81.7,78.7,76.6,97,88,78,30.14,30.07,0,0,0,0.00
2013-8-12,88.8,82.8,77.6,80.8,77.9,75.5,95,86,75,30.11,30.01,0,0,0,0.00
2013-8-13,90.2,84.2,78.7,81.4,78.9,76.5,93,85,74,30.06,29.94,0,0,0,0.00
2013-8-14,92.8,82.8,77.7,80.8,77.3,74.8,92,84,63,30.01,29.91,0,0,0,0.00
2013-8-15,86.4,80.7,77.1,80.2,77.2,75.0,96,89,77,30.04,29.94,0,0,0,0.00
2013-8-16,86.9,81.2,77.0,80.8,78.1,75.5,97,91,81,30.05,29.97,0,0,0,0.00
2013-8-17,89.6,83.2,78.0,82.9,80.0,77.3,99,91,79,30.08,30.00,0,0,0,0.01
2013-8-18,88.7,82.6,77.1,82.2,79.4,75.7,97,90,80,30.09,30.00,0,0,0,0.22
2013-8-19,90.0,83.5,78.4,82.4,79.6,76.7,97,88,78,30.08,29.96,0,0,0,0.00
2013-8-20,90.8,84.1,77.9,82.6,79.3,75.3,95,86,75,30.08,29.99,0,0,0,0.02
2013-8-21,87.2,81.9,77.1,81.9,78.7,75.3,96,90,83,30.09,30.01,0,0,0,0.03
2013-8-22,87.4,83.2,76.5,82.5,79.6,75.0,96,89,74,30.07,29.97,0,0,0,0.06
2013-8-23,89.2,82.6,78.9,82.5,78.7,75.1,95,88,78,30.01,29.94,0,0,0,0.07
2013-8-24,88.3,82.4,78.1,82.0,78.7,76.4,96,89,80,30.08,29.98,0,0,0,0.01
2013-8-25,85.0,81.0,78.7,79.3,77.2,75.3,95,88,77,30.15,30.04,0,0,0,0.00
2013-8-26,87.2,81.8,76.2,80.3,77.1,74.9,97,86,76,30.12,30.00,0,0,0,0.00
2013-8-27,84.9,79.9,71.3,78.3,75.2,69.8,98,86,73,30.04,29.97,0,0,0,0.21
2013-8-28,88.1,82.8,79.2,79.4,76.2,71.4,88,81,71,30.04,29.96,0,0,0,0.07
2013-8-29,87.5,81.9,74.7,79.7,76.4,72.2,96,84,74,30.04,29.93,0,0,0,0.01
2013-8-30,87.4,82.5,76.7,80.7,77.1,73.5,95,84,68,29.99,29.89,0,0,0,0.01
2013-8-31,90.5,81.7,76.4,81.2,76.4,70.4,92,84,69,29.97,29.88,0,0,0,0.00
2013-9-1,89.7,80.0,75.5,80.3,74.9,70.6,93,85,69,29.99,29.92,0,0,0,0.00
2013-9-2,89.7,78.4,72.1,80.4,74.6,69.5,98,89,69,30.03,29.90,0,0,0,0.00
2013-9-3,87.5,79.9,72.7,79.9,76.1,72.3,99,89,76,30.02,29.93,0,0,0,0.01
2013-9-4,89.3,82.6,76.9,82.5,78.5,74.7,94,88,76,30.07,29.96,0,0,0,0.00
2013-9-5,89.2,84.4,81.4,81.9,79.4,77.3,90,85,78,30.08,29.99,0,0,0,0.01
2013-9-6,88.8,83.9,80.1,80.9,78.5,76.1,91,84,74,30.04,29.94,0,0,0,0.00
2013-9-7,86.8,81.7,76.1,80.7,76.6,73.5,92,85,78,29.99,29.90,0,0,0,0.00
2013-9-8,88.0,80.4,73.8,79.9,76.0,72.8,98,87,76,29.95,29.86,0,0,0,0.01
2013-9-9,87.8,82.6,74.3,80.1,76.4,71.1,93,82,73,30.01,29.90,0,0,0,0.00
2013-9-10,86.3,82.8,76.9,79.6,76.6,73.4,92,82,74,30.06,29.96,0,0,0,0.01
2013-9-11,86.5,82.1,80.0,79.7,76.8,74.5,88,84,78,30.06,29.98,0,0,0,0.00
2013-9-12,85.5,79.6,74.8,77.6,75.5,72.6,93,88,73,30.01,29.89,0,0,0,0.00
2013-9-13,86.5,80.0,72.8,78.9,75.3,71.6,98,86,75,29.90,29.80,0,0,0,0.01
2013-9-14,89.8,48.0,77.2,99.9,87.7,75.2,94,46,74,29.97,29.81,0,-430,0,0.00
2013-9-15,86.2,32.4,78.0,99.9,91.9,75.8,94,34,81,30.06,29.93,0,-612,0,0.00
2013-9-16,86.0,25.8,74.2,99.9,93.3,72.9,96,26,83,30.05,29.97,0,-684,0,0.00
2013-9-17,85.8,26.3,76.2,99.9,92.3,73.7,94,29,80,30.04,29.94,0,-672,0,0.01
2013-9-18,86.0,34.6,81.4,99.9,90.9,76.7,88,35,79,30.01,29.93,0,-586,0,0.00
2013-9-19,84.8,32.7,79.1,99.9,91.0,75.2,92,33,78,30.02,29.94,0,-605,0,0.00
2013-9-20,85.0,39.2,80.5,99.9,86.8,69.5,76,33,63,30.01,29.90,0,-526,0,0.00
2013-9-21,85.7,40.3,78.3,99.9,87.3,71.6,82,36,67,29.92,29.77,0,-516,0,0.17
2013-9-22,92.2,40.5,77.6,99.9,88.9,73.0,93,33,56,29.85,29.74,0,-534,0,0.05
2013-9-23,88.6,23.4,76.2,99.9,93.9,73.3,97,24,75,29.97,29.83,0,-720,0,0.04
2013-9-24,85.7,31.9,75.8,99.9,91.5,73.3,98,35,82,29.95,29.83,0,-609,0,0.07
2013-9-25,85.6,35.2,77.1,99.9,88.9,71.5,92,33,66,29.86,29.77,0,-571,0,0.03
2013-9-26,90.0,36.1,75.5,99.9,90.8,74.2,96,33,66,29.83,29.75,0,-580,0,0.01
2013-9-27,84.7,34.2,72.3,99.9,89.5,71.3,98,36,75,29.93,29.80,0,-575,0,0.00
2013-9-28,83.8,36.0,78.7,99.9,89.1,73.5,90,36,73,29.97,29.88,0,-559,0,0.00
2013-9-29,85.3,36.9,74.2,99.9,88.4,71.7,93,34,70,29.97,29.89,0,-551,0,0.00
2013-9-30,85.3,36.4,74.1,99.9,89.1,72.7,96,34,72,30.01,29.90,0,-561,0,0.00
2013-10-1,87.1,38.3,79.9,99.9,88.9,73.5,81,34,70,30.04,29.95,0,-548,0,0.00
2013-10-2,84.9,35.6,80.4,99.9,89.4,73.6,80,33,72,30.04,29.98,0,-573,0,0.00
2013-10-3,86.1,35.0,79.4,99.9,89.5,73.1,82,32,72,30.06,29.96,0,-582,0,0.00
2013-10-4,87.3,36.5,80.9,99.9,88.8,72.6,77,31,66,30.07,29.99,0,-567,0,0.00
2013-10-5,86.8,34.5,80.9,99.9,90.2,74.1,83,31,69,30.03,29.94,0,-593,0,0.00
2013-10-6,90.3,35.5,82.5,99.9,90.3,74.5,80,30,67,29.97,29.87,0,-587,0,0.00
2013-10-7,88.8,22.7,75.5,99.9,93.2,71.6,93,20,60,29.88,29.78,0,-723,0,0.00
2013-10-8,90.7,36.4,75.5,99.9,89.4,70.1,97,30,54,29.90,29.80,0,-573,0,0.00
2013-10-9,82.2,28.0,73.9,99.9,91.3,73.2,98,29,81,29.98,29.87,0,-652,0,0.01
2013-10-10,82.8,34.7,69.1,99.9,88.6,68.1,97,34,73,30.02,29.95,0,-569,0,0.00
2013-10-11,82.5,33.4,78.6,99.9,87.1,66.7,74,28,60,30.02,29.93,0,-583,0,0.00
2013-10-12,84.5,35.0,72.6,99.9,87.6,68.5,90,31,62,30.02,29.94,0,-569,0,0.00
2013-10-13,83.0,35.3,69.7,99.9,86.2,65.2,90,29,58,30.06,29.97,0,-562,0,0.00
2013-10-14,83.5,34.2,73.7,99.9,88.7,70.5,93,33,74,30.01,29.91,0,-576,0,0.01
2013-10-15,81.1,30.4,71.3,99.9,89.6,70.1,97,33,77,29.96,29.87,0,-610,0,0.00
2013-10-16,81.8,34.9,71.8,99.9,88.8,70.5,96,37,81,29.95,29.88,0,-561,0,0.00
2013-10-17,86.2,34.6,74.7,99.9,89.6,72.8,94,33,72,29.96,29.89,0,-580,0,0.00
2013-10-18,85.6,32.5,77.1,99.9,90.5,73.5,91,32,76,29.99,29.90,0,-605,0,0.00
2013-10-19,86.5,32.6,75.2,99.9,90.9,73.0,93,32,73,29.95,29.86,0,-609,0,0.00
2013-10-20,86.1,29.8,76.0,99.9,92.0,74.4,95,31,79,29.95,29.86,0,-637,0,0.01
2013-10-21,88.3,33.8,75.5,99.9,91.4,73.9,95,32,73,29.99,29.89,0,-602,0,0.00
2013-10-22,91.8,35.3,78.1,99.9,90.1,71.4,93,27,53,29.94,29.80,0,-598,0,0.00
2013-10-23,81.0,31.8,76.2,99.9,88.3,67.6,93,32,71,29.95,29.78,0,-594,0,0.00
2013-10-24,79.8,48.8,74.4,99.9,78.3,63.5,76,46,65,30.10,29.94,13,-364,16,0.17
2013-10-25,78.9,71.4,67.2,69.6,62.7,-99.9,88,76,65,30.17,30.08,14,-8,16,0.00
2013-10-26,79.0,74.7,72.6,66.0,62.5,57.0,78,66,57,30.16,30.07,9,4,16,0.00
2013-10-27,78.0,71.6,61.8,68.0,63.6,60.0,94,77,62,30.10,30.03,7,3,10,0.00
2013-10-28,81.7,74.3,65.6,72.0,67.8,63.0,92,80,66,30.14,30.04,10,4,14,0.00
2013-10-29,83.1,78.4,76.1,73.0,70.3,68.0,84,76,68,30.18,30.09,14,6,16,0.00
2013-10-30,82.8,79.0,77.2,73.0,70.6,69.0,79,75,69,30.19,30.09,10,5,14,0.00
2013-10-31,83.6,56.2,77.3,75.0,21.0,-99.9,87,55,72,30.11,29.99,12,-297,15,0.01
2013-11-1,88.8,79.5,73.6,77.0,74.6,72.0,96,85,61,30.00,29.86,9,2,14,0.04
2013-11-2,87.0,75.6,68.6,76.0,70.1,64.0,97,84,61,29.92,29.80,9,2,15,0.00
2013-11-3,77.0,72.1,66.5,66.0,61.1,58.0,86,69,52,30.05,29.89,16,6,21,0.00
2013-11-4,77.6,75.3,71.6,69.0,65.2,57.0,90,71,55,30.10,30.02,20,10,29,0.05
2013-11-5,79.9,76.7,73.7,73.0,71.2,69.0,93,83,77,30.11,30.03,19,8,26,0.06
2013-11-6,80.7,77.2,73.1,73.0,70.9,69.0,94,81,73,30.07,30.00,10,4,14,0.05
2013-11-7,78.6,58.7,70.3,75.0,35.2,-99.9,97,72,85,30.01,29.92,6,-213,10,0.01
2013-11-8,77.4,28.2,73.8,73.0,-36.1,-99.9,90,32,83,30.06,29.94,18,-624,23,0.00
2013-11-9,78.7,25.9,75.6,72.0,-42.2,-99.9,84,28,81,30.14,30.04,12,-660,15,0.00
2013-11-10,80.7,29.6,75.2,75.0,-34.5,-99.9,86,31,80,30.13,30.05,6,-619,11,0.00
2013-11-11,80.5,25.3,74.2,75.0,-44.1,-99.9,95,27,80,30.13,30.05,8,-676,13,0.00
2013-11-12,79.0,24.9,73.7,74.0,-44.2,-99.9,95,28,82,30.07,29.97,5,-676,11,0.00
2013-11-13,72.3,18.8,69.3,65.0,-58.3,-99.9,87,20,70,30.25,30.00,17,-730,26,0.00
2013-11-14,73.0,44.4,70.8,65.0,-0.2,-99.9,78,44,64,30.26,30.15,14,-381,19,0.00
2013-11-15,78.8,74.5,72.1,71.0,68.2,63.0,88,80,72,30.16,30.05,12,5,18,0.00
2013-11-16,80.2,74.8,69.8,74.0,70.9,67.0,95,87,79,30.10,30.00,14,3,18,0.08
2013-11-17,79.9,76.8,73.8,74.0,72.9,72.0,94,87,80,30.07,29.99,8,4,11,0.00
2013-11-18,86.5,76.6,70.8,77.0,73.1,70.0,96,89,70,30.00,29.90,5,1,6,0.00
2013-11-19,77.4,73.9,70.6,73.0,70.7,69.0,96,90,79,29.93,29.84,7,3,13,0.00
2013-11-20,77.8,75.0,72.1,74.0,72.6,71.0,97,92,85,30.07,29.91,18,7,26,0.57
2013-11-21,77.5,75.8,72.7,74.0,72.8,71.0,98,90,84,30.15,30.05,17,9,25,2.46
2013-11-22,78.5,76.6,75.1,73.0,70.5,67.0,89,81,76,30.17,30.08,16,7,21,0.01
2013-11-23,79.8,76.2,71.8,71.0,69.2,68.0,86,79,71,30.09,29.98,7,2,14,0.00
2013-11-24,74.9,70.6,66.8,69.0,66.3,62.0,96,86,76,30.18,29.98,23,8,29,0.07
2013-11-25,73.5,71.5,69.7,70.0,64.6,61.0,91,79,70,30.22,30.06,18,10,24,0.03
2013-11-26,80.5,75.7,73.1,76.0,72.6,69.0,93,90,85,30.05,29.77,17,6,23,0.02
2013-11-27,75.6,68.7,51.8,74.0,62.7,47.0,96,82,61,30.11,29.72,13,4,22,0.01
2013-11-28,70.4,57.6,42.6,62.0,48.8,-99.9,88,77,62,30.27,30.12,14,-15,18,0.00
2013-11-29,73.3,71.2,60.8,65.0,62.6,55.0,81,74,67,30.29,30.22,17,11,22,0.00
2013-11-30,74.8,71.3,63.1,68.0,65.9,61.0,96,83,75,30.23,30.13,15,8,23,0.25
2013-12-1,72.1,68.7,65.7,69.0,67.3,65.0,98,95,88,30.13,29.95,10,3,17,1.07
2013-12-2,69.4,65.2,61.3,66.0,63.5,60.0,99,94,83,29.94,29.80,6,2,13,0.01
2013-12-3,74.8,67.6,62.0,67.0,63.7,60.0,95,87,73,29.99,29.88,4,1,8,0.00
2013-12-4,82.9,71.9,64.2,72.0,67.5,63.0,95,86,59,30.08,29.98,6,1,9,0.00
2013-12-5,80.3,73.2,66.8,74.0,69.7,65.0,95,89,80,30.17,30.08,9,2,12,0.00
2013-12-6,77.1,73.5,70.6,74.0,70.6,68.0,95,91,85,30.19,30.09,10,3,16,0.02
2013-12-7,81.0,74.2,68.0,74.0,70.1,66.0,95,87,77,30.23,30.14,9,2,10,0.01
2013-12-8,79.9,77.0,74.8,73.0,71.4,69.0,87,83,76,30.22,30.12,13,5,17,0.00
2013-12-9,81.2,75.6,69.4,74.0,70.8,66.0,96,85,75,30.18,30.10,11,3,16,0.03
2013-12-10,85.2,75.4,67.8,74.0,69.8,65.0,94,84,54,30.15,30.06,7,2,12,0.00
2013-12-11,79.8,75.9,72.0,75.0,72.2,70.0,95,88,82,30.21,30.13,13,4,15,0.00
2013-12-12,72.5,69.3,67.6,71.0,64.4,58.0,96,85,66,30.24,30.14,18,7,23,0.00
2013-12-13,73.3,71.4,69.5,67.0,62.2,59.0,80,73,66,30.23,30.11,18,10,23,0.00
2013-12-14,78.0,74.7,72.6,74.0,71.0,66.0,93,88,80,30.11,29.96,17,6,25,0.02
2013-12-15,76.6,70.8,66.5,75.0,68.8,60.0,97,93,79,30.07,29.91,8,2,15,0.07
2013-12-16,67.1,62.5,54.8,61.0,58.3,53.0,92,86,77,30.17,30.05,8,3,14,0.00
2013-12-17,74.9,64.2,54.3,65.0,59.4,53.0,97,85,59,30.19,30.11,8,3,11,0.01
2013-12-18,68.3,62.8,52.4,61.0,55.4,49.0,95,78,59,30.24,30.15,8,3,14,0.00
2013-12-19,73.1,67.2,53.2,64.0,59.4,50.0,94,77,65,30.25,30.17,8,4,12,0.00
2013-12-20,77.7,73.7,71.4,70.0,67.2,63.0,91,80,71,30.20,30.11,8,3,12,0.00
2013-12-21,79.0,74.9,72.7,75.0,72.5,70.0,96,92,86,30.15,30.06,9,4,12,0.00
2013-12-22,80.1,75.6,72.7,75.0,73.0,71.0,96,91,81,30.15,30.07,10,3,16,0.00
2013-12-23,82.3,75.4,72.1,76.0,72.5,68.0,96,90,79,30.17,30.09,11,2,17,0.01
2013-12-24,73.7,68.3,63.7,71.0,64.6,58.0,96,88,75,30.18,30.09,16,6,22,0.07
2013-12-25,73.1,70.6,68.8,64.0,62.3,60.0,79,75,69,30.20,30.13,17,9,23,0.00
2013-12-26,74.7,71.7,69.5,71.0,68.2,63.0,95,88,77,30.18,30.08,9,4,14,0.00
2013-12-27,77.1,72.4,68.7,73.0,69.9,67.0,96,91,86,30.21,30.11,9,4,15,0.00
2013-12-28,76.7,74.0,72.6,72.0,70.7,70.0,92,89,85,30.19,30.02,14,6,20,0.02
2013-12-29,81.8,75.3,72.4,76.0,72.6,71.0,97,91,79,30.02,29.88,13,3,17,0.01
2013-12-30,73.0,67.8,63.9,71.0,64.7,57.0,96,89,70,30.16,29.96,9,3,14,0.00
2013-12-31,71.7,70.1,67.8,65.0,63.5,61.0,85,80,75,30.26,30.12,12,6,16,0.00
2014-1-1,72.8,71.1,67.9,71.0,68.6,65.0,98,92,79,30.21,30.03,14,5,18,0.23
2014-1-2,82.6,73.2,65.3,74.0,68.6,65.0,99,86,67,30.03,29.82,8,2,16,0.01